Flag for Brazil Weather past 2 weeks in Fernando de Noronha, Pernambuco, Brazil

Now
81 °F

Broken clouds.


Feels Like: 84 °F
Forecast: 77 / 80 °F
Wind: 14 mph from South

Location: Fernando De Noronha

Current Time: Jul 31, 2015 at 5:59:54 PM

Latest Report: Jul 31, 2015 at 5:00 PM


Visibility: N/A

Pressure: 29.95 "Hg

Humidity: 70%

Dew point: 70 °F

Location of Fernando de NoronhaLocation

Historic Weather in Fernando de Noronha — Graph

°F

Fernando de Noronha temperature yesterday

Maximum temperature yesterday: 84 °F (at 1:00 PM)
Minimum temperature yesterday: 75 °F (at 6:00 AM)
Average temperature yesterday: 80 °F

Past Weeks' High & Low Weather Summary

 TemperatureHumidityPressure
High91 °F (Jul 28, 10:00 AM)100% (Jul 19, 12:00 PM)30.04 "Hg (Jul 19, 12:00 PM)
Low75 °F (Jul 19, 6:00 AM)59% (Jul 28, 10:00 AM)29.89 "Hg (Jul 16, 5:00 PM)
Average80 °F81%29.99 "Hg
* Reported Jul 16 5:00 PM — Jul 31 5:00 PM, Fernando de Noronha, Weather by CustomWeather, © 2015

Note: Actual official high and low records may vary slightly from our data, if they occured in-between our weather recording intervals... More about our weather records

Advertising

Fernando de Noronha weather history for previous 24 hours

 ConditionsComfort  
Time TempWeatherWind HumidityBarometerVisibility
5:00 PM
Fri, Jul 31
81 °FBroken clouds.14 mph70%29.95 "HgN/A
4:00 PM81 °FBroken clouds.14 mph74%29.95 "HgN/A
3:00 PM84 °FScattered clouds.15 mph66%29.95 "HgN/A
2:00 PM84 °FPassing clouds.14 mph70%29.98 "HgN/A
1:00 PM84 °FScattered clouds.14 mph66%30.01 "HgN/A
12:00 PM84 °FScattered clouds.15 mph74%30.01 "HgN/A
11:00 AM82 °FPassing clouds.17 mph74%30.04 "HgN/A
10:00 AM81 °FScattered clouds.15 mph79%30.04 "HgN/A
9:00 AM79 °FBroken clouds.14 mph84%30.04 "HgN/A
8:00 AM75 °FBroken clouds.12 mph94%30.01 "HgN/A
7:00 AM77 °FPassing clouds.12 mph83%30.01 "HgN/A
6:00 AM77 °FPassing clouds.13 mph79%29.98 "HgN/A
8:00 PM
Thu, Jul 30
79 °FPassing clouds.15 mph74%30.01 "HgN/A
7:00 PM79 °FPassing clouds.16 mph79%29.98 "HgN/A
6:00 PM79 °FPassing clouds.14 mph84%29.98 "HgN/A
5:00 PM81 °FPassing clouds.16 mph74%29.98 "HgN/A
Weather by CustomWeather, © 2015

See weather overviewHow to use our weather pages